Weather observations for the past three days for
Mackinac Island Airport
Imperial (Metric)
Date Time (edt) Wind (mph) Vis. (mi.) Weather Sky Cond. Temperature (ºF) Relative Humidity Wind Chill (°F) Heat Index (°F) Pressure Precipitation (in)
Air Dwpt 6 hour altimeter (in) sea level (mb) 1 hr 3 hr 6 hr
Max. Min.
25 10:55 Calm 10.00 Fair CLR 67.1 57.6 72% 30.24 0.0
25 10:35 W 5 10.00 Fair CLR 66.6 55.8 68% 30.24 0.0
25 10:15 W 3 10.00 Fair CLR 65.1 56.5 74% 30.24 0.0
25 09:55 W 5 10.00 Fair CLR 63.9 58.1 82% 30.24 0.0
25 09:35 W 3 10.00 Fair CLR 63.7 58.6 84% 30.24 0.0
25 09:15 Calm 10.00 Fair CLR 61.9 58.5 89% 30.24 0.0
25 08:55 NW 3 10.00 Fair CLR 60.8 58.1 91% 30.24 0.0
25 08:35 W 3 10.00 Fair CLR 60.6 58.3 92% 30.23 0.0
25 08:15 W 3 10.00 Fair CLR 59.9 58.1 94% 30.22 0.0
25 07:55 Calm 10.00 Fair CLR 59.2 57.9 59.2 54.5 96% 30.22 0.0
25 07:35 W 3 10.00 Fair CLR 58.5 58.1 99% 30.21 0.0
25 07:15 NW 3 10.00 Partly Cloudy SCT075 56.8 56.8 100% 30.21 0.0
25 06:55 NW 3 10.00 Partly Cloudy SCT075 56.1 56.1 100% 30.2 0.0
25 06:35 NW 5 10.00 Partly Cloudy SCT065 SCT075 55 55 100% 30.2 0.0
25 06:15 Calm 10.00 Mostly Cloudy BKN075 54.7 54.7 100% 30.2 0.0
25 05:55 NW 5 10.00 Partly Cloudy SCT060 SCT070 55.9 55.9 100% 30.19 0.0
25 05:35 NW 5 10.00 Partly Cloudy SCT060 SCT070 54.7 54.7 100% 30.18 0.0
25 05:15 NW 3 10.00 Fair CLR 54.9 54.9 100% 30.18 0.0
25 04:55 NW 3 10.00 Partly Cloudy SCT065 55.6 55.6 100% 30.17 0.0
25 04:35 NW 6 10.00 Partly Cloudy SCT065 SCT075 55.8 55.6 99% 30.17 0.0
25 04:15 NW 3 10.00 Partly Cloudy SCT075 57.6 55 91% 30.17 0.0
25 03:55 NW 5 10.00 Mostly Cloudy BKN075 58.3 55 89% 30.17 0.0
25 03:35 N 6 10.00 Overcast OVC075 57.7 55.4 92% 30.17 0.0
25 03:15 NW 7 10.00 Overcast OVC075 57.6 55.8 94% 30.17 0.0
25 02:55 NW 6 10.00 Mostly Cloudy BKN075 58.1 53.4 85% 30.17 0.0
25 02:35 N 3 10.00 Fair CLR 58.6 53.1 82% 30.17 0.0
25 02:15 NW 3 10.00 Fair CLR 59 53.4 82% 30.17 0.0
25 01:55 NW 7 10.00 Fair CLR 58.1 53.6 68.9 58.1 85% 30.17 0.0
25 01:35 NW 8 10.00 Fair CLR 58.5 53.6 84% 30.17 0.0
25 01:15 NW 8 10.00 Fair CLR 58.8 53.8 83% 30.17 0.0
25 00:55 NW 7 10.00 Fair CLR 59.4 52.9 79% 30.16 0.0
25 00:35 NW 7 10.00 Partly Cloudy SCT065 59.9 52.9 78% 30.16 0.0
25 00:15 NW 7 10.00 Mostly Cloudy BKN065 60.8 53.1 76% 30.16 0.0
24 23:55 NW 7 10.00 Mostly Cloudy BKN065 61.2 52.5 73% 30.16 0.0
24 23:35 N 7 10.00 Partly Cloudy SCT065 61.7 52.2 71% 30.15 0.0
24 23:15 N 9 10.00 Fair CLR 61.9 53.1 73% 30.15 0.0
24 22:55 N 6 10.00 Fair CLR 62.6 53.4 72% 30.15 0.0
24 22:35 NW 7 10.00 Fair CLR 63 54.7 75% 30.15 0.0
24 22:15 NW 6 10.00 Fair CLR 63.5 55.4 75% 30.15 0.0
24 21:55 NW 5 10.00 Fair CLR 63.7 55.4 75% 30.14 0.0
24 21:35 N 6 10.00 Fair CLR 64.9 55 70% 30.13 0.0
24 21:15 N 8 10.00 Fair CLR 65.3 55 70% 30.13 0.0
24 20:55 N 6 10.00 Fair CLR 65.8 55.8 70% 30.13 0.0
24 20:35 N 8 10.00 Fair CLR 66.6 55.8 68% 30.13 0.0
24 20:15 N 8 10.00 Fair CLR 68 56.3 66% 30.12 0.0
24 19:55 N 7 10.00 Fair CLR 69.1 56.8 73 67.5 65% 30.12 0.0
24 19:35 N 7 10.00 Fair CLR 69.8 57.4 65% 30.12 0.0
24 19:15 N 8 10.00 Fair CLR 70.7 57.6 63% 30.12 0.0
24 18:55 N 9 10.00 Fair CLR 71.2 57.6 62% 30.11 0.0
24 18:35 N 10 G 16 10.00 Fair CLR 71.6 56.8 60% 30.11 0.0
24 18:15 N 7 10.00 Fair CLR 72.1 58.1 61% 30.11 0.0
24 17:55 N 6 10.00 Fair CLR 72.9 57.6 59% 30.11 0.0
24 17:35 N 7 10.00 Fair CLR 73 58.1 60% 30.11 0.0
24 17:15 N 7 10.00 Fair CLR 72.3 56.8 58% 30.11 0.0
24 16:55 N 7 10.00 Fair CLR 72.7 57.2 58% 30.1 0.0
24 16:35 N 9 10.00 Fair CLR 72.7 57.9 60% 30.1 0.0
24 16:15 N 7 10.00 Fair CLR 72.7 57.9 60% 30.11 0.0
24 15:55 W 8 10.00 Partly Cloudy SCT037 SCT045 SCT060 71.4 60.3 68% 30.11 0.0
24 15:35 W 7 10.00 Mostly Cloudy SCT055 BKN070 69.6 60.6 73% 30.11 0.0
24 15:15 W 7 10.00 Mostly Cloudy BKN070 69.1 60.1 73% 30.1 0.0
24 14:55 SW 5 10.00 Mostly Cloudy SCT035 SCT060 BKN075 68.2 59.5 74% 30.1 0.0
24 14:35 W 6 10.00 Overcast BKN070 OVC080 68.4 58.5 71% 30.1 0.0
24 14:15 NW 8 10.00 Mostly Cloudy SCT060 BKN080 69.6 58.8 69% 30.1 0.0
24 13:55 N 7 10.00 Partly Cloudy SCT046 70.9 58.5 71.1 60.8 65% 30.1 0.0
24 13:35 N 8 10.00 Mostly Cloudy BKN044 69.3 58.5 69% 30.1 0.0
24 13:15 N 6 10.00 Partly Cloudy SCT042 69.8 59.9 71% 30.1 0.0
24 12:55 N 9 10.00 Fair CLR 69.3 60.6 74% 30.1 0.0
24 12:35 NW 8 10.00 Partly Cloudy SCT013 SCT038 SCT044 67.8 61.7 81% 30.1 0.0
24 12:15 NW 8 10.00 Overcast SCT013 OVC041 67.8 61.7 81% 30.1 0.0
24 11:55 N 6 10.00 Overcast SCT013 OVC041 66.4 62.2 87% 30.1 0.0
24 11:35 N 6 10.00 Overcast BKN013 OVC025 64.6 61.9 91% 30.1 0.0
24 11:15 N 8 10.00 Overcast BKN013 OVC023 63.9 61.7 93% 30.1 0.0
24 10:55 N 6 10.00 Overcast BKN013 OVC018 63.1 61.5 94% 30.1 0.0
24 10:35 N 7 10.00 Overcast OVC013 62.2 61.7 98% 30.09 0.0
24 10:15 N 7 10.00 Overcast OVC009 62.1 62.1 100% 30.09 0.0
24 09:55 N 9 10.00 Overcast OVC009 61.7 61.7 100% 30.09 0.0
24 09:35 N 7 10.00 Overcast OVC009 61.7 61.7 100% 30.09 0.0
24 09:15 N 8 10.00 Overcast OVC009 61 61 100% 30.08 0.0
24 08:55 N 7 10.00 Overcast OVC007 61.3 61.3 100% 30.08 0.0
24 08:35 N 6 10.00 Overcast OVC007 60.8 60.8 100% 30.08 0.0
24 08:15 N 7 10.00 Overcast OVC007 60.8 60.8 100% 30.07 0.0
24 07:55 N 7 10.00 Overcast OVC007 60.8 60.8 61.7 60.6 100% 30.07 0.0 0.03
24 07:35 N 9 10.00 Overcast OVC007 60.8 60.8 100% 30.06 0.0
24 07:15 N 6 10.00 Overcast BKN007 OVC019 60.8 60.8 100% 30.06 0.0
24 06:55 N 8 10.00 Overcast BKN007 OVC019 60.8 60.8 100% 30.06 0.0
24 06:35 N 7 10.00 Overcast OVC007 60.8 60.8 100% 30.05 0.0
24 06:15 N 7 10.00 Overcast OVC007 60.8 60.8 100% 30.05 0.0
24 05:55 N 10 10.00 Overcast OVC005 60.8 60.8 100% 30.04 0.0
24 05:35 N 9 10.00 Overcast OVC005 60.8 60.8 100% 30.04 0.0
24 05:15 N 7 10.00 Overcast OVC005 61 61 100% 30.04 0.0
24 04:55 N 8 10.00 Overcast OVC003 61 61 100% 30.03 0.0 0.01 0.03
24 04:35 N 8 10.00 Overcast OVC003 61.2 61.2 100% 30.03 0.0 0.01
24 04:15 N 10 10.00 Light Rain OVC003 61 61 100% 30.03 0.0 0.01
24 03:55 NE 8 7.00 Light Rain BKN005 OVC010 61.2 61.2 100% 30.03 0.0 0.02
24 03:35 NE 12 G 17 10.00 Light Rain BKN005 OVC010 61.2 61.2 100% 30.03 0.0 0.01
24 03:15 N 9 10.00 Light Rain OVC005 61.2 61.2 100% 30.03 0.0
24 02:55 N 10 10.00 Overcast OVC005 61.2 61.2 100% 30.03 0.0
24 02:35 N 7 10.00 Overcast OVC005 61.3 61.3 100% 30.04 0.0
24 02:15 N 7 10.00 Overcast OVC005 61.7 61.7 100% 30.04 0.0
24 01:55 N 8 10.00 Overcast OVC005 61.7 61.7 63.5 61.7 100% 30.04 0.0 0.14
24 01:35 NE 5 10.00 Overcast OVC005 61.9 61.9 100% 30.04 0.0
24 01:15 N 8 10.00 Overcast OVC005 61.9 61.9 100% 30.04 0.0
24 00:55 NE 8 10.00 Light Drizzle OVC005 62.1 62.1 100% 30.04 0.0 0.03
24 00:35 NE 9 10.00 Light Rain OVC005 62.6 62.6 100% 30.04 0.0 0.02
24 00:15 NE 10 10.00 Light Rain OVC005 62.6 62.6 100% 30.03 0.0 0.01
23 23:55 E 8 7.00 Rain OVC007 62.6 62.6 100% 30.04 0.0 0.03
23 23:35 E 9 G 16 10.00 Light Rain OVC007 62.6 62.6 100% 30.04 0.0 0.01
23 23:15 E 8 10.00 Overcast BKN005 OVC010 62.2 62.2 100% 30.05 0.0
23 22:55 E 10 10.00 Rain OVC005 62.1 62.1 100% 30.05 0.0 0.07
23 22:35 NE 10 10.00 Overcast OVC005 62.1 62.1 100% 30.05 0.0
23 22:15 NE 13 10.00 Overcast OVC005 62.4 62.4 100% 30.05 0.0
23 21:55 NE 13 10.00 Overcast OVC005 62.6 62.6 100% 30.05 0.0
23 21:35 NE 14 10.00 Overcast OVC005 62.6 62.6 100% 30.05 0.0
23 21:15 NE 12 G 17 10.00 Overcast OVC005 62.8 62.8 100% 30.04 0.0
23 20:55 NE 12 G 17 10.00 Light Drizzle OVC005 63.1 63.1 100% 30.04 0.0 0.07
23 20:35 NE 13 G 16 10.00 Light Rain OVC005 63.5 63.5 100% 30.04 0.0 0.07
23 20:15 NE 14 4.00 Rain OVC005 63.5 63.5 100% 30.02 0.0 0.04
23 19:55 NE 12 4.00 Rain BKN005 OVC021 63.7 63.7 64.8 63 100% 30.03 0.0 0.06 0.1
23 19:35 NE 13 G 17 10.00 Rain SCT005 BKN021 OVC090 63.5 63.5 100% 30.04 0.0 0.01
23 19:15 NE 13 10.00 Light Rain OVC080 63.5 63.5 100% 30.04 0.0 0.01
23 18:55 NE 12 G 17 10.00 Light Drizzle OVC095 63.5 63.5 100% 30.04 0.0 0.01
23 18:35 NE 13 G 17 10.00 Light Rain SCT025 BKN055 OVC095 63.5 63.5 100% 30.03 0.0 0.01
23 18:15 NE 13 10.00 Light Rain BKN023 OVC034 63.9 63.9 100% 30.04 0.0
23 17:55 NE 10 10.00 Light Rain SCT021 BKN050 OVC070 63.5 63.5 100% 30.04 0.0 0.03
23 17:35 NE 10 10.00 Light Rain SCT014 SCT019 OVC070 63.5 63 98% 30.04 0.0 0.01
23 17:15 NE 13 10.00 Light Rain SCT019 BKN036 OVC055 63.5 62.2 96% 30.05 0.0 0.01
23 16:55 NE 8 10.00 Light Rain SCT030 BKN050 OVC065 63.9 62.6 96% 30.05 0.0
23 16:35 NE 7 10.00 Overcast OVC065 64.4 61.5 90% 30.05 0.0
23 16:15 NE 12 10.00 Overcast OVC065 63.9 62.1 94% 30.05 0.0
23 15:55 NE 12 10.00 Light Rain SCT049 BKN065 OVC085 63.9 61 90% 30.04 0.0
23 15:35 NE 12 10.00 Overcast SCT049 BKN075 OVC090 63.7 60.6 90% 30.04 0.0
23 15:15 NE 12 10.00 Overcast SCT023 SCT031 OVC075 63 60.1 90% 30.04 0.0
23 14:55 NE 13 10.00 Overcast SCT036 BKN080 OVC110 63.5 60.6 90% 30.05 0.0
23 14:35 E 12 10.00 Light Rain SCT028 SCT035 BKN110 63.9 61.2 91% 30.04 0.0
23 14:15 NE 13 10.00 Light Rain SCT036 BKN050 OVC065 64 64 100% 30.05 0.0
23 13:55 NE 9 10.00 Light Rain BKN050 OVC060 63.3 62.8 65.7 63.3 98% 30.05 0.0 0.03 0.12
23 13:35 NE 8 10.00 Light Rain SCT044 OVC050 63.7 63.7 100% 30.06 0.0 0.02
23 13:15 NE 7 10.00 Light Rain SCT038 OVC050 64 64 100% 30.06 0.0 0.01
23 12:55 NE 5 7.00 Light Rain SCT038 BKN048 OVC065 63.7 63.5 99% 30.06 0.0 0.04
23 12:35 E 3 10.00 Light Rain SCT040 BKN050 OVC065 64.4 62.2 93% 30.07 0.0 0.02
23 12:15 E 3 10.00 Light Rain SCT040 SCT049 OVC055 63.7 61.9 94% 30.06 0.0 0.01
23 11:55 E 6 10.00 Light Rain BKN055 OVC065 64.4 64.2 99% 30.05 0.0 0.04
23 11:35 E 5 10.00 Rain OVC065 64.6 64.2 99% 30.05 0.0 0.02
23 11:15 NE 6 10.00 Light Rain BKN050 OVC065 64.8 64.8 100% 30.05 0.0 0.01
23 10:55 NE 8 10.00 Light Rain SCT045 OVC060 65.3 65.3 100% 30.05 0.0 0.01 0.01
23 10:35 E 6 10.00 Light Rain SCT050 BKN060 OVC075 65.3 65.3 100% 30.05 0.0
23 10:15 Calm 10.00 Light Rain BKN070 OVC090 65.3 65.3 100% 30.05 0.0
23 09:55 Calm 10.00 Light Rain SCT070 OVC090 65.3 65.3 100% 30.05 0.0
23 09:35 Calm 10.00 Light Rain SCT065 OVC090 65.5 65.5 100% 30.05 0.0
23 09:15 NE 5 10.00 Light Rain SCT050 BKN070 OVC090 65.5 65.5 100% 30.04 0.0
23 08:55 NE 6 10.00 Light Rain BKN075 OVC090 65.3 65.3 100% 30.03 0.0
23 08:35 E 5 10.00 Overcast SCT075 OVC090 65.3 65.3 100% 30.02 0.0
23 08:15 E 5 10.00 Overcast SCT065 SCT075 OVC100 65.5 65.3 99% 30.02 0.0
23 07:55 E 7 10.00 Overcast OVC100 65.3 65.3 65.3 60.3 100% 30.01 0.0
23 07:35 E 6 10.00 Overcast OVC100 64.9 64.9 100% 30.01 0.0
23 07:15 E 8 10.00 Overcast SCT095 OVC110 64.4 64.4 100% 30 0.0
23 06:55 E 5 10.00 Overcast OVC110 64.4 64.4 100% 30 0.0
23 06:35 NE 7 10.00 Mostly Cloudy BKN120 64.4 64.4 100% 30 0.0
23 06:15 NE 5 10.00 Partly Cloudy SCT120 64.4 64.4 100% 30 0.0
23 05:55 NE 7 10.00 Partly Cloudy SCT095 64.4 64.4 100% 30 0.0
23 05:35 NE 6 10.00 Mostly Cloudy BKN095 63.5 63.5 100% 30 0.0
23 05:15 NE 6 10.00 Fair CLR 60.8 59.5 96% 29.99 0.0
23 04:55 NE 3 10.00 Fair CLR 60.8 59 94% 29.99 0.0
23 04:35 Calm 10.00 Fair CLR 61.2 58.6 91% 29.99 0.0
23 04:15 Calm 10.00 Fair CLR 61.2 58.8 92% 29.99 0.0
23 03:55 Calm 10.00 Fair CLR 60.8 59 94% 29.99 0.0
23 03:35 N 3 10.00 Fair CLR 61 58.5 91% 29.99 0.0
23 03:15 S 6 10.00 Fair CLR 60.8 58.1 91% 29.98 0.0
23 02:55 S 7 10.00 Fair CLR 61.7 57.6 86% 29.99 0.0
23 02:35 S 7 10.00 Fair CLR 63.3 57.7 82% 29.99 0.0
23 02:15 S 7 10.00 Fair CLR 63.7 58.3 83% 29.99 0.0
23 01:55 S 7 10.00 Fair CLR 64 58.5 72 63.7 82% 29.99 0.0
23 01:35 S 6 10.00 Fair CLR 64.2 57.7 80% 29.99 0.0
23 01:15 S 7 10.00 Fair CLR 66.2 57.2 73% 30 0.0
23 00:55 S 6 10.00 Fair CLR 66.2 56.1 70% 30 0.0
23 00:35 SE 6 10.00 Fair CLR 66.9 54.1 64% 30 0.0
23 00:15 S 7 10.00 Fair CLR 64.4 55.9 74% 30 0.0
22 23:55 SE 6 10.00 Fair CLR 66.4 55.2 67% 30 0.0
22 23:35 SE 6 10.00 Fair CLR 67.6 55.8 66% 30 0.0
22 23:15 SE 7 10.00 Fair CLR 67.5 56.3 68% 30 0.0
22 22:55 SE 8 10.00 Fair CLR 67.3 56.8 69% 30 0.0
22 22:35 SE 7 10.00 Fair CLR 67.1 57.2 71% 30 0.0
22 22:15 SE 6 10.00 Fair CLR 67.5 57.6 71% 30 0.0
22 21:55 SE 6 10.00 Fair CLR 68 58.1 71% 30 0.0
22 21:35 SE 7 10.00 Partly Cloudy SCT060 68 59 73% 30 0.0
22 21:15 SE 6 10.00 Fair CLR 68 59.2 74% 30 0.0
22 20:55 SE 7 10.00 Fair CLR 68.9 59.9 73% 29.99 0.0
22 20:35 SE 5 10.00 Fair CLR 70.3 59.2 68% 29.98 0.0
22 20:15 SE 5 10.00 Fair CLR 71.4 59.9 67% 29.98 0.0
22 19:55 E 6 10.00 Fair CLR 72 59.9 77.2 72 66% 29.98 0.0
22 19:35 SE 3 10.00 Fair CLR 73 59 62% 29.98 0.0
22 19:15 E 6 10.00 Fair CLR 73.4 59 61% 29.97 0.0
22 18:55 E 6 10.00 Fair CLR 74.3 56.5 54% 29.97 0.0
22 18:35 Calm 10.00 Fair CLR 74.8 55.2 51% 29.97 0.0
22 18:15 SE 3 10.00 Fair CLR 75.4 54.5 48% 78 29.98 0.0
22 17:55 SE 6 10.00 Fair CLR 76.3 52.9 44% 78 29.98 0.0
22 17:35 SE 5 10.00 Fair CLR 76.3 51.3 42% 78 29.98 0.0
22 17:15 Calm 10.00 Fair CLR 77 49.8 39% 78 29.99 0.0
22 16:55 W 3 10.00 Fair CLR 77 48.4 37% 78 29.99 0.0
22 16:35 W 3 10.00 Fair CLR 76.8 48.4 37% 78 30 0.0
22 16:15 Calm 10.00 Fair CLR 77 46.6 34% 78 30.01 0.0
22 15:55 E 3 10.00 Fair CLR 75.9 55.8 50% 78 30.01 0.0
22 15:35 Calm 10.00 Fair CLR 76.5 57 51% 78 30.02 0.0
22 15:15 E 3 10.00 Fair CLR 75.7 55.4 49% 78 30.02 0.0
22 14:55 Calm 10.00 Fair CLR 75.2 55.8 51% 78 30.02 0.0
22 14:35 E 5 10.00 Fair CLR 75.2 55.2 50% 78 30.02 0.0
22 14:15 E 3 10.00 Fair CLR 74.7 54.7 50% 30.03 0.0
22 13:55 E 6 10.00 Fair CLR 74.5 56.1 74.5 61.7 53% 30.03 0.0
22 13:35 NE 3 10.00 Fair CLR 73.4 59.2 61% 30.04 0.0
22 13:15 NE 6 10.00 Fair CLR 73.8 59.4 61% 30.04 0.0
22 12:55 SE 3 10.00 Partly Cloudy SCT028 73.4 59 61% 30.05 0.0
22 12:35 E 5 10.00 Fair CLR 73.6 60.6 64% 30.05 0.0
22 12:15 Calm 10.00 Fair CLR 72.3 61 68% 30.06 0.0
22 11:55 Calm 10.00 Fair CLR 71.8 60.3 67% 30.07 0.0
22 11:35 N 3 10.00 Fair CLR 71.6 60.3 68% 30.07 0.0
22 11:15 Calm 10.00 Fair CLR 71.2 60.4 69% 30.07 0.0
Date Time (edt) Wind (mph) Vis. (mi.) Weather Sky Cond. Air Dwpt Max. Min. Relative Humidity Wind Chill (°F) Heat Index (°F) altimeter (in) sea level (mb) 1 hr 3 hr 6 hr
6 hour
Temperature (ºF) Pressure Precipitation (in)